Location: Fort Worth, Tx
(32.7431°N, 97.3695°W)
Time: 05:07:03
(UTC-05:00)

A-11 Canister half - All Passes

Search period start: 28 January 2023 00:00
Search period end: 07 February 2023 00:00
Orbit: 1525 x 1683 km, 47.3° (Epoch: 25 January)

Date Brightness Start Highest point End Pass type
(mag) Time Alt. Az. Time Alt. Az. Time Alt. Az.
28 Jan - 05:49:54 10° SSE 05:55:49 19° SE 06:01:44 10° E visible
28 Jan - 07:50:26 10° SW 07:59:41 78° SE 08:09:05 10° NE visible
28 Jan - 09:56:33 10° W 10:05:18 44° NNW 10:14:18 10° NE daylight
28 Jan - 12:04:11 10° WNW 12:12:33 34° N 12:21:09 10° ENE daylight
28 Jan - 14:09:59 10° NW 14:19:26 57° NNE 14:29:10 10° ESE daylight
28 Jan - 16:15:12 10° WNW 16:24:32 53° SW 16:34:10 10° SSE daylight
29 Jan - 05:28:41 10° SSE 05:34:12 17° SE 05:39:42 10° E visible
29 Jan - 07:28:47 10° SW 07:38:01 74° SE 07:47:22 10° NE visible
29 Jan - 09:34:44 10° W 09:43:32 45° NNW 09:52:33 10° NE daylight
29 Jan - 11:42:25 10° WNW 11:50:44 33° N 11:59:17 10° ENE daylight
29 Jan - 13:48:18 10° NW 13:57:40 55° NNE 14:07:20 10° ESE daylight
29 Jan - 15:53:27 10° WNW 16:02:51 56° SW 16:12:32 10° SSE daylight
29 Jan - 18:04:01 10° WSW 18:06:37 11° WSW 18:09:14 10° SW daylight
30 Jan - 05:07:32 10° SSE 05:12:35 16° ESE 05:17:36 10° E visible
30 Jan - 07:07:08 10° SW 07:16:20 70° SE 07:25:38 10° NE visible
30 Jan - 09:12:56 10° W 09:21:46 46° NNW 09:30:49 10° NE daylight
30 Jan - 11:20:38 10° WNW 11:28:55 33° N 11:37:25 10° ENE daylight
30 Jan - 13:26:35 10° NW 13:35:54 53° NNE 13:45:29 10° ESE daylight
30 Jan - 15:31:43 10° WNW 15:41:10 59° SW 15:50:54 10° SSE daylight
30 Jan - 17:41:20 10° W 17:44:58 12° WSW 17:48:38 10° SW daylight
31 Jan - 04:46:28 10° SSE 04:50:57 14° ESE 04:55:25 10° E visible
31 Jan - 06:45:31 10° SW 06:54:40 67° SE 07:03:54 10° ENE visible
31 Jan - 08:51:08 10° W 09:00:01 48° NNW 09:09:05 10° NE daylight
31 Jan - 10:58:51 10° WNW 11:07:06 33° N 11:15:33 10° ENE daylight
31 Jan - 13:04:54 10° NW 13:14:08 51° NNE 13:23:38 10° E daylight
31 Jan - 15:10:00 10° WNW 15:19:28 62° SW 15:29:15 10° SSE daylight
31 Jan - 17:18:57 10° W 17:23:19 14° WSW 17:27:45 10° SSW daylight
01 Feb - 04:25:31 10° SSE 04:29:20 13° ESE 04:33:08 10° E visible
01 Feb - 06:23:53 10° SW 06:33:00 63° SE 06:42:10 10° ENE visible
01 Feb - 08:29:20 10° W 08:38:15 49° NNW 08:47:21 10° NE daylight
01 Feb - 10:37:03 10° WNW 10:45:18 33° N 10:53:43 10° ENE daylight
01 Feb - 12:43:12 10° NW 12:52:22 49° NNE 13:01:48 10° E daylight
01 Feb - 14:48:16 10° WNW 14:57:47 66° SW 15:07:35 10° SE daylight
01 Feb - 16:56:42 10° W 17:01:40 15° WSW 17:06:43 10° SSW daylight
02 Feb - 04:04:46 10° SE 04:07:43 12° ESE 04:10:39 10° ESE visible
02 Feb - 06:02:17 10° SSW 06:11:21 60° SE 06:20:26 10° ENE visible
02 Feb - 08:07:32 10° W 08:16:30 51° NNW 08:25:38 10° NE daylight
02 Feb - 10:15:16 10° WNW 10:23:29 33° N 10:31:52 10° ENE daylight
02 Feb - 12:21:31 10° NW 12:30:36 48° NNE 12:39:57 10° E daylight
02 Feb - 14:26:33 10° WNW 14:36:05 69° SW 14:45:55 10° SE daylight
02 Feb - 16:34:33 10° W 16:40:01 16° WSW 16:45:36 10° SSW daylight
03 Feb - 03:44:29 10° SE 03:46:06 11° ESE 03:47:42 10° ESE visible
03 Feb - 05:40:41 10° SSW 05:49:41 56° SE 05:58:41 10° ENE visible
03 Feb - 07:45:45 10° WSW 07:54:46 53° NNW 08:03:54 10° NE visible
03 Feb - 09:53:27 10° WNW 10:01:40 33° N 10:10:03 10° ENE daylight
03 Feb - 11:59:48 10° NW 12:08:49 46° NNE 12:18:06 10° E daylight
03 Feb - 14:04:50 10° NW 14:14:22 73° SW 14:24:14 10° SE daylight
03 Feb - 16:12:28 10° W 16:18:22 18° SW 16:24:24 10° SSW daylight
04 Feb - 05:19:05 10° SSW 05:28:02 53° SE 05:36:57 10° ENE visible
04 Feb - 07:23:58 10° WSW 07:33:01 55° NNW 07:42:12 10° NE visible
04 Feb - 09:31:39 10° WNW 09:39:51 33° N 09:48:14 10° ENE daylight
04 Feb - 11:38:06 10° NW 11:47:03 45° NNE 11:56:14 10° E daylight
04 Feb - 13:43:08 10° NW 13:52:40 76° SW 14:02:32 10° SE daylight
04 Feb - 15:50:26 10° W 15:56:43 19° SW 16:03:08 10° SSW daylight
05 Feb - 04:57:30 10° SSW 05:06:23 50° SE 05:15:13 10° ENE visible
05 Feb - 07:02:11 10° WSW 07:11:17 57° NNW 07:20:29 10° NE visible
05 Feb - 09:09:51 10° WNW 09:18:03 33° N 09:26:25 10° ENE daylight
05 Feb - 11:16:24 10° NW 11:25:16 43° NNE 11:34:22 10° E daylight
05 Feb - 13:21:26 10° NW 13:30:59 80° SW 13:40:50 10° SE daylight
05 Feb - 15:28:27 10° W 15:35:04 21° SW 15:41:51 10° S daylight
06 Feb - 04:35:56 10° SSW 04:44:44 47° SE 04:53:27 10° ENE visible
06 Feb - 06:40:25 10° WSW 06:49:34 59° NNW 06:58:46 10° NE visible
06 Feb - 08:48:02 10° WNW 08:56:15 33° N 09:04:36 10° ENE daylight
06 Feb - 10:54:41 10° NW 11:03:29 42° NNE 11:12:30 10° E daylight
06 Feb - 12:59:44 10° NW 13:09:16 83° SW 13:19:07 10° SE daylight
06 Feb - 15:06:31 10° W 15:13:26 22° SW 15:20:31 10° S daylight
